[[{"header":{"parameterUnit":"m.s-1","parameterCategory":2,"la1":30.2991,"la2":30.254,"lo1":-89.0895,"lo2":-89.0444,"dy":0.0017,"dx":0.0017,"nx":28,"ny":28,"refTime":"2024-04-17T09:00:00:Z","depth":"0","parameterNumber":2,"parameterNumberName":"U-component_of_CURRENTS"},"data":[0,0,0,0,0,0,0,0,0,0,0,0,0,0,0,0,0,0,0,0,0,0,0,0,0,0,0,0,0,0,0,0,0,0,0,0,0,0,0,0,0,0,0,0,0,0,0,0,0,0,0,0,0,0,0,0,0,0,0.219,0.219,0,0.2253,0.2253,0.2254,0.227,0.2269,0.2269,0.2269,0.2296,0.2297,0.2298,0,0,0,0,0,0,0,0,0,0,0,0,0,0.2113,0.2114,0.219,0.219,0.2191,0.2253,0.2253,0.2254,0.227,0.2269,0.2269,0.2269,0.2295,0.2297,0.2298,0,0,0,0,0,0,0,0,0,0,0,0,0,0.2157,0.2115,0.2189,0.2207,0.221,0.2252,0.2253,0.2254,0.227,0.2269,0.2269,0.2269,0.2295,0.2296,0.2298,0.2316,0,0,0.2303,0.2303,0,0,0,0,0,0,0,0,0.2155,0.216,0.2204,0.2206,0.2209,0.2254,0.2237,0.2274,0.227,0.2246,0.2269,0.2268,0.228,0.2282,0.2294,0.2317,0.2319,0.2303,0.2304,0.2304,0.2305,0,0,0,0,0,0,0,0.2152,0.2157,0.2213,0.2205,0.2208,0.2223,0.2228,0.2244,0.2263,0.2248,0.2249,0.2258,0.228,0.2293,0.2295,0.2319,0.2303,0.2304,0.2305,0.2305,0.2399,0.2401,0,0,0,0,0,0,0.2145,0.2155,0.2211,0.2215,0.2181,0.2225,0.2231,0.2239,0.2263,0.2267,0.2259,0.2259,0.229,0.2293,0.2296,0.2348,0.2304,0.2306,0.2306,0.2398,0.2399,0.2401,0,0,0,0,0,0,0.2143,0.215,0.2209,0.2187,0.2196,0.2226,0.2236,0.224,0.2256,0.2272,0.2275,0.2269,0.229,0.2293,0.2324,0.2348,0.2306,0.2308,0.2396,0.2398,0.24,0.2434,0,0,0,0,0,0,0.2141,0.2149,0.2152,0.2187,0.2197,0.2244,0.2236,0.2242,0.2262,0.2263,0.2283,0.2284,0.229,0.2322,0.2326,0.2349,0.2309,0.2394,0.2397,0.24,0.2431,0.2437,0.2442,0,0,0,0,0,0.2138,0.2153,0.2152,0.2159,0.2201,0.2246,0.2253,0.2271,0.2263,0.2281,0.2294,0.2284,0.2344,0.2325,0.2329,0.2353,0.2392,0.2396,0.2399,0.2428,0.2436,0.2442,0,0,0,0,0,0,0.2124,0.2157,0.2156,0.218,0.2212,0.2249,0.227,0.2274,0.2299,0.2298,0.2303,0.2307,0.2346,0.2347,0.2326,0.2391,0.2367,0.2372,0.2388,0.2395,0.2401,0.24,0.231,0,0,0,0,0,0.212,0.214,0.2172,0.2193,0.221,0.2236,0.2255,0.2268,0.2295,0.2305,0.2316,0.2335,0.2365,0.2376,0.24,0.2431,0.244,0.2451,0.2456,0.2461,0.2465,0.252,0.2531,0.2413,0.2413,0.2413,0,0,0.2119,0.2142,0.2151,0.2191,0.2217,0.225,0.2247,0.2284,0.2308,0.2304,0.2338,0.2356,0.2379,0.2421,0.2437,0.2422,0.2497,0.2466,0.247,0.2471,0.2525,0.2537,0.2547,0.2415,0.2415,0.2415,0,0,0.2135,0.215,0.2171,0.2201,0.2242,0.2265,0.2275,0.2312,0.2327,0.2362,0.2372,0.2404,0.2436,0.2464,0.2481,0.2533,0.253,0.2541,0.2565,0.2619,0.2629,0.2638,0.2648,0.2657,0.254,0.254,0.254,0,0.2131,0.2159,0.2186,0.2217,0.2245,0.2271,0.2303,0.2329,0.2368,0.239,0.2377,0.2453,0.246,0.2527,0.254,0.2545,0.2563,0.2533,0.2626,0.2635,0.2644,0.2652,0.2662,0.2542,0.2542,0.2541,0.2541,0,0.2161,0.2185,0.2207,0.2252,0.2286,0.2323,0.2362,0.2391,0.2405,0.243,0.2493,0.2515,0.2562,0.2569,0.2565,0.2637,0.2624,0.2629,0.2605,0.2658,0.2662,0.2672,0.2545,0.2544,0.2543,0.2543,0,0,0.2148,0.2213,0.2218,0.2238,0.2307,0.2334,0.2389,0.2446,0.2477,0.2517,0.2567,0.2615,0.2631,0.2651,0.2663,0.2694,0.2751,0.2683,0.2685,0.2685,0.2847,0.2774,0.2777,0.2779,0.2782,0.2784,0.2819,0,0.2162,0.2209,0.2249,0.2298,0.2326,0.2377,0.2424,0.2478,0.2521,0.2574,0.262,0.2668,0.2664,0.2684,0.2727,0.2752,0.2782,0.2739,0.2802,0.2803,0.2727,0.2789,0.2673,0.269,0.2828,0.283,0.2831,0,0.2173,0.2205,0.225,0.2312,0.233,0.2368,0.2447,0.2494,0.2584,0.2617,0.2693,0.2726,0.2796,0.2772,0.2863,0.284,0.2847,0.2853,0.2856,0.2784,0.275,0.2665,0.2703,0.2654,0.2846,0.2845,0.2844,0,0.2137,0.2202,0.2234,0.2258,0.2337,0.237,0.2418,0.2506,0.2553,0.265,0.2694,0.2789,0.2835,0.2886,0.2912,0.2895,0.2992,0.2972,0.2913,0.2906,0.2817,0.2798,0.2809,0.3033,0.3032,0.3032,0.3032,0,0.2136,0.216,0.2215,0.2235,0.2281,0.2343,0.2407,0.247,0.2563,0.2627,0.2715,0.2781,0.2869,0.2935,0.2946,0.2967,0.3032,0.2927,0.2925,0.2822,0.2804,0.2763,0.2738,0.3034,0.3033,0.3033,0.3033,0,0.2105,0.214,0.2177,0.2245,0.2268,0.2302,0.2396,0.2442,0.2533,0.2623,0.2655,0.2791,0.2873,0.294,0.3013,0.2999,0.2935,0.3008,0.2857,0.2835,0.2698,0.2678,0.2574,0.2499,0.2937,0.2936,0.2934,0,0.2098,0.2111,0.217,0.2196,0.2234,0.2288,0.2332,0.2423,0.248,0.2623,0.2668,0.2776,0.2848,0.2936,0.2932,0.2945,0.2885,0.2829,0.2769,0.2684,0.2662,0.256,0.2498,0.2658,0.2654,0.2652,0.2649,0,0.2098,0.2113,0.2151,0.2187,0.223,0.2265,0.2334,0.2367,0.2477,0.2541,0.2631,0.269,0.2785,0.2763,0.2793,0.2783,0.2686,0.277,0.2743,0.2494,0.2325,0.2253,0.2617,0.2625,0.2628,0.2629,0.2631,0.2632,0.2108,0.2122,0.2161,0.219,0.2222,0.2235,0.2236,0.2303,0.2354,0.242,0.2534,0.2567,0.2623,0.2643,0.2613,0.2503,0.2502,0.2428,0.2424,0.234,0.2221,0.2506,0.2474,0.2476,0.2477,0.2478,0.2479,0,0.2126,0.2137,0.2162,0.2178,0.2165,0.2194,0.2228,0.2204,0.2211,0.2294,0.2337,0.2368,0.2353,0.2369,0.2309,0.2201,0.209,0.2141,0.1997,0.1964,0.2282,0.2226,0.2064,0.2064,0.2064,0.2064,0.2064,0.2064,0.2146,0.216,0.2148,0.2113,0.2104,0.2057,0.2045,0.2017,0.2045,0.2024,0.2025,0.2077,0.2186,0.2182,0.2078,0.2015,0.1871,0.175,0.1772,0.2035,0.2062,0.2088,0.2031,0.183,0.183,0.1363,0.136,0.1357]},{"header":{"parameterUnit":"m.s-1","parameterCategory":2,"la1":30.2991,"la2":30.254,"lo1":-89.0895,"lo2":-89.0444,"dy":0.0017,"dx":0.0017,"nx":28,"ny":28,"refTime":"2024-04-17T09:00:00:Z","depth":"0","parameterNumber":3,"parameterNumberName":"V-component_of_CURRENTS"},"data":[0,0,0,0,0,0,0,0,0,0,0,0,0,0,0,0,0,0,0,0,0,0,0,0,0,0,0,0,0,0,0,0,0,0,0,0,0,0,0,0,0,0,0,0,0,0,0,0,0,0,0,0,0,0,0,0,0,0,0.0182,0.0181,0,0.0149,0.0149,0.0148,0.0122,0.0122,0.0122,0.0122,0.0073,0.0072,0.007,0,0,0,0,0,0,0,0,0,0,0,0,0,0.0194,0.0194,0.0182,0.0181,0.0181,0.0149,0.0149,0.0148,0.0122,0.0122,0.0122,0.0122,0.0073,0.0072,0.007,0,0,0,0,0,0,0,0,0,0,0,0,0,0.0176,0.0194,0.0182,0.0166,0.0164,0.0149,0.0149,0.0148,0.0122,0.0122,0.0122,0.0122,0.0074,0.0072,0.007,0.0062,0,0,0.0064,0.0064,0,0,0,0,0,0,0,0,0.0178,0.0176,0.0168,0.0167,0.0165,0.0141,0.0135,0.0119,0.0122,0.0136,0.0122,0.0122,0.0095,0.0092,0.0084,0.0059,0.0057,0.0064,0.0063,0.0062,0.0062,0,0,0,0,0,0,0,0.0179,0.0177,0.0167,0.0168,0.0166,0.0151,0.0149,0.0132,0.0115,0.0135,0.0133,0.0133,0.0094,0.0085,0.0082,0.0056,0.0064,0.0063,0.0062,0.0061,0.0027,0.0027,0,0,0,0,0,0,0.0188,0.0178,0.0168,0.0166,0.0173,0.0151,0.0148,0.0147,0.0116,0.0111,0.0133,0.0132,0.0089,0.0084,0.008,0.0081,0.0062,0.0061,0.006,0.0026,0.0027,0.0027,0,0,0,0,0,0,0.0189,0.0188,0.0169,0.0173,0.017,0.0152,0.0151,0.0147,0.0142,0.0115,0.011,0.0133,0.0088,0.0083,0.007,0.0078,0.006,0.0058,0.0026,0.0026,0.0027,0.0074,0,0,0,0,0,0,0.0189,0.0188,0.019,0.0174,0.017,0.0169,0.0151,0.0146,0.0143,0.0141,0.0113,0.0108,0.0088,0.0073,0.0068,0.0075,0.0057,0.0026,0.0026,0.0027,0.0072,0.0076,0.0079,0,0,0,0,0,0.019,0.0198,0.019,0.0189,0.0174,0.017,0.0167,0.0152,0.0143,0.0146,0.0124,0.0109,0.0072,0.0072,0.0066,0.0073,0.0026,0.0026,0.0027,0.0071,0.0075,0.0079,0,0,0,0,0,0,0.0205,0.0196,0.0187,0.0192,0.0185,0.0167,0.0169,0.0157,0.0142,0.0138,0.0111,0.0105,0.0097,0.0078,0.0078,0.0063,0.0046,0.0046,0.0082,0.0085,0.0089,0.0111,0.0055,0,0,0,0,0,0.0209,0.0214,0.0201,0.0205,0.0204,0.0187,0.0183,0.0172,0.0157,0.015,0.0132,0.011,0.0093,0.0084,0.0067,0.0059,0.005,0.0059,0.0062,0.0065,0.0079,0.0069,0.0073,0.0028,0.0028,0.0028,0,0,0.0215,0.0213,0.0213,0.0209,0.0202,0.0208,0.0184,0.0183,0.0186,0.0147,0.0147,0.0122,0.0094,0.0086,0.008,0.0071,0.0074,0.0066,0.0069,0.0081,0.007,0.0074,0.0078,0.0028,0.0028,0.0028,0,0,0.0237,0.0229,0.0241,0.0238,0.0233,0.0225,0.0228,0.0213,0.0205,0.0198,0.0172,0.0154,0.0129,0.0111,0.0098,0.0109,0.0093,0.0102,0.0137,0.0126,0.013,0.0134,0.0132,0.0135,0.0103,0.0103,0.0103,0,0.0245,0.0258,0.0244,0.0256,0.0261,0.0238,0.0254,0.0242,0.0224,0.0225,0.0205,0.0175,0.0142,0.0139,0.0137,0.0118,0.0115,0.0124,0.0132,0.0135,0.0138,0.0136,0.0138,0.0105,0.0105,0.0105,0.0105,0,0.0275,0.0285,0.0294,0.0303,0.0305,0.0315,0.0302,0.0301,0.0288,0.0276,0.0269,0.0226,0.0213,0.0193,0.0165,0.017,0.0163,0.0139,0.0126,0.0146,0.0141,0.0143,0.0109,0.0108,0.0107,0.0107,0,0,0.0301,0.0314,0.0318,0.0334,0.0332,0.0342,0.0349,0.0356,0.0376,0.0341,0.0365,0.0311,0.0293,0.0277,0.0241,0.0222,0.0224,0.0192,0.019,0.0198,0.0214,0.02,0.02,0.0204,0.0205,0.0205,0.0205,0,0.0333,0.037,0.0366,0.0403,0.0422,0.0408,0.0427,0.0425,0.0419,0.0435,0.0387,0.0394,0.0324,0.0327,0.0294,0.0252,0.0231,0.0227,0.0187,0.0187,0.0177,0.0202,0.0197,0.0196,0.0207,0.0207,0.0207,0,0.0367,0.0391,0.0434,0.0466,0.0475,0.0496,0.0531,0.0543,0.0547,0.0543,0.053,0.0502,0.0476,0.0414,0.0348,0.0352,0.0289,0.0243,0.0241,0.0216,0.0176,0.0176,0.0199,0.0107,0.021,0.021,0.021,0,0.0407,0.044,0.0482,0.0491,0.0521,0.0546,0.0566,0.0581,0.0616,0.0625,0.0661,0.0607,0.0614,0.0521,0.0418,0.0389,0.0351,0.0297,0.0223,0.0222,0.0204,0.02,0.0141,0.0248,0.0248,0.0248,0.0248,0,0.0447,0.048,0.0508,0.0535,0.0602,0.0599,0.0675,0.0683,0.0724,0.0795,0.0731,0.0786,0.0643,0.0601,0.0473,0.0371,0.0392,0.0244,0.0224,0.022,0.0218,0.0125,0.005,0.0248,0.0248,0.0248,0.0248,0,0.0486,0.0499,0.0557,0.0604,0.0625,0.0678,0.076,0.0818,0.0841,0.0938,0.0954,0.0938,0.0876,0.0725,0.0593,0.0468,0.0285,0.0303,0.0313,0.0293,0.0116,0.0044,-0.0039,-0.0102,0.0219,0.0219,0.0219,0,0.0511,0.0543,0.0618,0.0672,0.0701,0.0778,0.0843,0.0878,0.0951,0.1046,0.1108,0.1081,0.1084,0.0884,0.0638,0.042,0.0291,0.0283,0.0209,0.0122,0.0026,-0.0019,-0.0069,0.0206,0.0205,0.0205,0.0205,0,0.0572,0.0599,0.0658,0.0761,0.084,0.0926,0.1019,0.1093,0.1159,0.1244,0.1353,0.1364,0.117,0.0954,0.0648,0.0486,0.0202,0.027,0.0176,0.0013,-0.0036,-0.0109,0.0196,0.0202,0.0203,0.0203,0.0203,0.0203,0.0636,0.0692,0.0773,0.0868,0.0957,0.1067,0.1144,0.1254,0.138,0.1507,0.1519,0.1544,0.1241,0.0814,0.0595,0.0193,0.0168,0.0067,-0.001,-0.0043,-0.0116,0.019,0.0171,0.0171,0.0172,0.0172,0.0172,0,0.0722,0.0782,0.0875,0.0989,0.1079,0.1111,0.1257,0.1338,0.149,0.1608,0.1685,0.1536,0.116,0.0766,0.022,-0.0032,-0.0133,-0.0166,-0.0235,-0.0274,0.0005,-0.0009,-0.0063,-0.0063,-0.0063,-0.0063,-0.0063,-0.0063,0.0782,0.0881,0.0914,0.1067,0.1139,0.125,0.1328,0.1463,0.1563,0.1689,0.1693,0.1682,0.1393,0.0471,-0.0138,-0.0282,-0.0448,-0.0484,-0.0572,-0.0388,-0.0371,-0.0356,-0.0384,-0.0516,-0.0517,-0.081,-0.0813,-0.0816]}],[{"header":{"parameterUnit":"m.s-1","parameterCategory":2,"la1":30.2991,"la2":30.254,"lo1":-89.0895,"lo2":-89.0444,"dy":0.0017,"dx":0.0017,"nx":28,"ny":28,"refTime":"2024-04-17T09:00:00:Z","depth":"2","parameterNumber":2,"parameterNumberName":"U-component_of_CURRENTS"},"data":[0,0,0,0,0,0,0,0,0,0,0,0,0,0,0,0,0,0,0,0,0,0,0,0,0,0,0,0,0,0,0,0,0,0,0,0,0,0,0,0,0,0,0,0,0,0,0,0,0,0,0,0,0,0,0,0,0,0,0.1965,0.1965,0,0.2037,0.2038,0.2039,0.2045,0.2044,0.2043,0.2042,0.2068,0.2069,0.2071,0,0,0,0,0,0,0,0,0,0,0,0,0,0.1896,0.1897,0.1965,0.1965,0.1966,0.2037,0.2038,0.2039,0.2045,0.2044,0.2043,0.2042,0.2067,0.2069,0.2071,0,0,0,0,0,0,0,0,0,0,0,0,0,0.1945,0.1898,0.1965,0.1976,0.1978,0.2037,0.2038,0.204,0.2046,0.2044,0.2043,0.2041,0.2067,0.2069,0.2071,0.2116,0,0,0.2079,0.208,0,0,0,0,0,0,0,0,0.1942,0.1948,0.1974,0.1975,0.1977,0.2028,0.2023,0.2062,0.2046,0.2022,0.2042,0.2041,0.205,0.2054,0.2075,0.2117,0.2118,0.2079,0.208,0.2081,0.2082,0,0,0,0,0,0,0,0.1939,0.1945,0.1996,0.1974,0.1977,0.1999,0.2004,0.2031,0.2045,0.2024,0.2024,0.2029,0.205,0.2072,0.2075,0.2119,0.2079,0.2081,0.2082,0.2083,0.2166,0.2166,0,0,0,0,0,0,0.1924,0.1942,0.1993,0.1998,0.1953,0.2001,0.2007,0.2015,0.2045,0.2048,0.203,0.2029,0.2069,0.2072,0.2076,0.2127,0.2081,0.2084,0.2085,0.2165,0.2166,0.2166,0,0,0,0,0,0,0.1922,0.1928,0.1991,0.1969,0.1978,0.2003,0.2013,0.2018,0.203,0.205,0.2052,0.2036,0.2068,0.2072,0.2088,0.2128,0.2085,0.2087,0.2164,0.2165,0.2166,0.2232,0,0,0,0,0,0,0.192,0.1927,0.1935,0.1968,0.1979,0.2008,0.2015,0.202,0.2034,0.2033,0.2056,0.2057,0.2067,0.2085,0.2091,0.2131,0.2089,0.2163,0.2164,0.2166,0.2229,0.2235,0.2241,0,0,0,0,0,0.1917,0.1932,0.1936,0.1942,0.1987,0.2007,0.2015,0.203,0.2035,0.2036,0.2054,0.2056,0.2098,0.2087,0.2094,0.2136,0.2162,0.2164,0.2166,0.2226,0.2234,0.2241,0,0,0,0,0,0,0.1909,0.1935,0.1939,0.1961,0.1973,0.2007,0.2025,0.2029,0.205,0.2057,0.2067,0.207,0.2106,0.2101,0.2089,0.216,0.2131,0.2134,0.2174,0.2182,0.2188,0.2196,0.2091,0,0,0,0,0,0.1911,0.1924,0.1946,0.1961,0.1975,0.2,0.2014,0.2022,0.2042,0.205,0.2072,0.2095,0.2123,0.2132,0.2157,0.2192,0.2192,0.222,0.2226,0.2231,0.2241,0.2283,0.2295,0.2172,0.2172,0.2172,0,0,0.1909,0.1927,0.1934,0.196,0.1983,0.2008,0.2006,0.2029,0.2053,0.2052,0.2101,0.2121,0.2136,0.2182,0.2197,0.218,0.226,0.2234,0.2238,0.2245,0.2286,0.2299,0.231,0.2173,0.2173,0.2173,0,0,0.1919,0.1935,0.1954,0.1969,0.1997,0.2016,0.2017,0.2055,0.2075,0.2117,0.213,0.2166,0.2206,0.2233,0.2249,0.2298,0.2295,0.2303,0.2341,0.2383,0.2394,0.2403,0.2397,0.2406,0.2301,0.2301,0.2301,0,0.1919,0.1947,0.196,0.1986,0.2002,0.2017,0.204,0.2071,0.2108,0.2142,0.2133,0.2225,0.2238,0.2297,0.2318,0.2317,0.2319,0.2317,0.2393,0.2402,0.2411,0.2403,0.2412,0.2305,0.2304,0.2304,0.2304,0,0.1942,0.1969,0.1985,0.2022,0.2036,0.2059,0.2093,0.2128,0.216,0.2199,0.2269,0.2294,0.2345,0.2358,0.2358,0.2431,0.2404,0.2402,0.2379,0.2428,0.2415,0.2423,0.2309,0.2308,0.2307,0.2306,0,0,0.1933,0.199,0.1996,0.2023,0.2057,0.2075,0.2125,0.2181,0.2229,0.2281,0.2347,0.2409,0.2433,0.245,0.2457,0.249,0.2552,0.2475,0.2476,0.2476,0.2615,0.2534,0.2534,0.257,0.2572,0.2574,0.2573,0,0.195,0.1997,0.2021,0.2069,0.2097,0.2129,0.2171,0.2224,0.2277,0.235,0.2401,0.2466,0.2463,0.2491,0.2532,0.2556,0.258,0.2551,0.2561,0.256,0.249,0.2544,0.2362,0.2341,0.2581,0.2582,0.2583,0,0.1961,0.1995,0.2035,0.21,0.2117,0.2149,0.2221,0.2262,0.236,0.2405,0.2481,0.2523,0.2595,0.2577,0.2646,0.2629,0.2632,0.2635,0.2635,0.2546,0.2496,0.2335,0.2347,0.2596,0.2595,0.2594,0.2593,0,0.1934,0.2007,0.2038,0.2056,0.2127,0.2166,0.2208,0.2289,0.2338,0.2445,0.25,0.2583,0.2632,0.2666,0.2689,0.2678,0.2744,0.2726,0.2646,0.2638,0.2477,0.2451,0.2773,0.2773,0.2773,0.2773,0.2773,0,0.1928,0.1962,0.2037,0.2056,0.211,0.216,0.223,0.2285,0.2375,0.2437,0.2529,0.2583,0.2664,0.2712,0.2713,0.2704,0.2767,0.2663,0.2648,0.249,0.2467,0.2685,0.2674,0.2773,0.2773,0.2773,0.2773,0,0.1891,0.1931,0.1981,0.2067,0.2096,0.2132,0.2231,0.2287,0.2371,0.2451,0.2489,0.2609,0.2659,0.2704,0.2752,0.2726,0.2724,0.2699,0.2485,0.2445,0.2576,0.2569,0.261,0.2607,0.2605,0.2603,0.2602,0,0.1881,0.1905,0.1981,0.2005,0.2049,0.2118,0.2167,0.2266,0.2319,0.245,0.2483,0.2578,0.2612,0.2651,0.263,0.2605,0.2665,0.2412,0.2366,0.2586,0.2567,0.2564,0.256,0.2164,0.2159,0.2155,0.2152,0,0.1874,0.1894,0.1928,0.1983,0.2035,0.2086,0.2165,0.22,0.2306,0.236,0.243,0.247,0.252,0.2426,0.2408,0.2369,0.2404,0.2327,0.2638,0.2236,0.2167,0.2148,0.2159,0.2116,0.2119,0.2122,0.2124,0.2125,0.1868,0.1885,0.1927,0.1963,0.2013,0.2042,0.2055,0.2125,0.2166,0.2194,0.2286,0.2262,0.2284,0.2162,0.2084,0.2036,0.2198,0.2099,0.2112,0.2128,0.208,0.2012,0.1919,0.1921,0.1923,0.1925,0.1926,0,0.1865,0.188,0.1914,0.1939,0.1945,0.2009,0.2041,0.2005,0.1997,0.203,0.2034,0.1856,0.1788,0.1808,0.169,0.1681,0.1663,0.1598,0.1569,0.1607,0.164,0.1566,0.1269,0.1267,0.1264,0.1262,0,0,0.1864,0.1864,0.1863,0.1848,0.1884,0.1856,0.1851,0.1808,0.1786,0.1683,0.1643,0.1718,0.1784,0.1513,0.1469,0.1355,0.1467,0.1296,0.1832,0.1839,0.1869,0.1946,0.1877,0,0,0,0,0]},{"header":{"parameterUnit":"m.s-1","parameterCategory":2,"la1":30.2991,"la2":30.254,"lo1":-89.0895,"lo2":-89.0444,"dy":0.0017,"dx":0.0017,"nx":28,"ny":28,"refTime":"2024-04-17T09:00:00:Z","depth":"2","parameterNumber":3,"parameterNumberName":"V-component_of_CURRENTS"},"data":[0,0,0,0,0,0,0,0,0,0,0,0,0,0,0,0,0,0,0,0,0,0,0,0,0,0,0,0,0,0,0,0,0,0,0,0,0,0,0,0,0,0,0,0,0,0,0,0,0,0,0,0,0,0,0,0,0,0,0.0023,0.0022,0,-0.0008,-0.0008,-0.0009,-0.0041,-0.0041,-0.0041,-0.0041,-0.0095,-0.0096,-0.0098,0,0,0,0,0,0,0,0,0,0,0,0,0,0.0041,0.004,0.0023,0.0022,0.0022,-0.0008,-0.0008,-0.0009,-0.004,-0.0041,-0.0041,-0.0041,-0.0095,-0.0096,-0.0098,0,0,0,0,0,0,0,0,0,0,0,0,0,0.0022,0.004,0.0023,0.0004,0.0002,-0.0008,-0.0009,-0.0009,-0.004,-0.0041,-0.0041,-0.0042,-0.0094,-0.0096,-0.0098,-0.01,0,0,-0.0103,-0.0104,0,0,0,0,0,0,0,0,0.0023,0.0021,0.0007,0.0005,0.0003,-0.0019,-0.0022,-0.004,-0.004,-0.0026,-0.0041,-0.0042,-0.0071,-0.0074,-0.0081,-0.0103,-0.0105,-0.0104,-0.0105,-0.0105,-0.0106,0,0,0,0,0,0,0,0.0025,0.0022,0.0009,0.0007,0.0005,-0.0007,-0.001,-0.0026,-0.0047,-0.0027,-0.0029,-0.003,-0.0072,-0.008,-0.0083,-0.0106,-0.0103,-0.0105,-0.0106,-0.0107,-0.0133,-0.0133,0,0,0,0,0,0,0.0033,0.0024,0.001,0.0008,0.0014,-0.0007,-0.0011,-0.0013,-0.0047,-0.0052,-0.0029,-0.0031,-0.0076,-0.0081,-0.0085,-0.0082,-0.0105,-0.0107,-0.0108,-0.0133,-0.0133,-0.0133,0,0,0,0,0,0,0.0033,0.0032,0.0011,0.0017,0.0013,-0.0007,-0.0009,-0.0013,-0.0018,-0.0048,-0.0054,-0.0029,-0.0077,-0.0082,-0.0094,-0.0085,-0.0108,-0.0109,-0.0134,-0.0133,-0.0133,-0.0081,0,0,0,0,0,0,0.0034,0.0032,0.0035,0.0017,0.0013,0.0011,-0.0009,-0.0014,-0.0017,-0.002,-0.0049,-0.0055,-0.0078,-0.0091,-0.0096,-0.0087,-0.0111,-0.0134,-0.0134,-0.0133,-0.0083,-0.0079,-0.0075,0,0,0,0,0,0.0035,0.0044,0.0036,0.0034,0.0018,0.0012,0.0009,-0.0008,-0.0016,-0.0014,-0.0035,-0.0054,-0.009,-0.0092,-0.0098,-0.009,-0.0135,-0.0134,-0.0133,-0.0085,-0.008,-0.0075,0,0,0,0,0,0,0.0054,0.0041,0.0032,0.0036,0.0027,0.0008,0.0011,-0.0002,-0.0016,-0.002,-0.0049,-0.0056,-0.0064,-0.0083,-0.0084,-0.0096,-0.0116,-0.0116,-0.0077,-0.0073,-0.0069,-0.0048,-0.0112,0,0,0,0,0,0.006,0.0062,0.0048,0.0051,0.005,0.0031,0.0028,0.0015,-0.0,-0.0007,-0.0027,-0.0048,-0.0065,-0.0073,-0.0092,-0.0095,-0.0111,-0.0094,-0.009,-0.0087,-0.0074,-0.009,-0.0086,-0.013,-0.013,-0.013,0,0,0.0066,0.0062,0.0062,0.0056,0.0047,0.0053,0.0028,0.0026,0.003,-0.0011,-0.001,-0.0035,-0.0063,-0.0069,-0.0074,-0.0083,-0.0084,-0.0086,-0.0082,-0.0071,-0.0088,-0.0084,-0.008,-0.0129,-0.0129,-0.0129,0,0,0.0087,0.0079,0.0089,0.0087,0.008,0.0071,0.0074,0.0057,0.005,0.0046,0.0018,0.0002,-0.0022,-0.0039,-0.0051,-0.0034,-0.0062,-0.0043,-0.0004,-0.002,-0.0016,-0.0013,-0.0031,-0.003,-0.004,-0.004,-0.004,0,0.0095,0.0107,0.0092,0.0104,0.0109,0.0084,0.0098,0.0089,0.0071,0.0073,0.0053,0.0025,-0.0005,-0.0006,-0.0006,-0.0024,-0.0038,-0.002,-0.0013,-0.0011,-0.0008,-0.0028,-0.0027,-0.0037,-0.0037,-0.0038,-0.0038,0,0.0125,0.0134,0.0143,0.015,0.0152,0.0161,0.0149,0.015,0.0138,0.0127,0.0123,0.0082,0.007,0.0052,0.0026,0.003,0.0013,-0.0007,-0.0023,-0.0001,-0.0023,-0.0023,-0.0033,-0.0034,-0.0035,-0.0036,0,0,0.0146,0.0161,0.0164,0.0181,0.0178,0.0188,0.0197,0.0204,0.0225,0.0194,0.0217,0.0172,0.0153,0.0138,0.0102,0.0083,0.0075,0.0049,0.0047,0.0037,0.0042,0.0014,0.0011,0.0058,0.0058,0.0058,0.0019,0,0.0175,0.0213,0.0209,0.0247,0.0266,0.0254,0.0273,0.0274,0.0268,0.0283,0.0241,0.0246,0.0186,0.0185,0.0155,0.0101,0.0078,0.0088,0.0018,0.0016,-0.0008,0.0011,0.0034,-0.0001,0.0018,0.0018,0.0018,0,0.0207,0.0231,0.0273,0.0308,0.0317,0.0339,0.0373,0.0385,0.039,0.0387,0.0375,0.0346,0.0317,0.0264,0.0183,0.0194,0.0125,0.0075,0.0072,0.0031,-0.0012,-0.002,-0.0002,0.0017,0.0017,0.0017,0.0017,0,0.0242,0.0278,0.0319,0.0329,0.0361,0.0388,0.0408,0.0422,0.0451,0.046,0.0487,0.0435,0.043,0.0339,0.0222,0.0209,0.0131,0.0098,0.0007,0.0004,0.0003,-0.0001,0.0043,0.0043,0.0043,0.0044,0.0044,0,0.0278,0.031,0.0345,0.0371,0.0433,0.0437,0.0506,0.0514,0.0549,0.0602,0.055,0.058,0.0451,0.0386,0.0262,0.0137,0.0158,0.0023,-0.0003,0.002,0.0019,0.0017,0.0015,0.0042,0.0042,0.0043,0.0043,0,0.0304,0.0323,0.0378,0.043,0.0452,0.0498,0.0574,0.0623,0.0648,0.0718,0.073,0.0697,0.0611,0.0465,0.032,0.0203,0.0075,0.002,0.0054,0.0032,-0.0052,-0.0051,-0.0073,-0.0074,-0.0075,-0.0076,-0.0077,0,0.0321,0.0355,0.0427,0.0469,0.0498,0.0569,0.0624,0.0667,0.0725,0.0792,0.0833,0.0783,0.0746,0.0519,0.0311,0.0099,0.0062,-0.002,-0.0047,-0.0038,-0.0061,-0.0059,-0.0057,-0.003,-0.0031,-0.0031,-0.0031,0,0.0356,0.0384,0.0431,0.0523,0.059,0.0667,0.075,0.081,0.0873,0.0936,0.0999,0.0977,0.0778,0.0574,0.0281,0.0135,0.0013,-0.0032,-0.0019,-0.0008,-0.0001,-0.0024,-0.0022,-0.0033,-0.0033,-0.0033,-0.0033,-0.0033,0.0383,0.0426,0.0497,0.0576,0.0659,0.0753,0.0818,0.0918,0.1018,0.1101,0.1087,0.1056,0.0843,0.0464,0.0231,-0.0007,-0.0001,-0.0092,-0.0089,-0.0086,-0.0077,-0.0074,-0.0117,-0.0117,-0.0118,-0.0118,-0.0118,0,0.0417,0.0468,0.0546,0.064,0.0724,0.0777,0.0893,0.0959,0.1079,0.1153,0.1186,0.0964,0.0739,0.049,0.015,-0.0062,-0.0075,-0.0142,-0.0101,-0.0097,-0.0095,-0.0085,-0.0128,-0.0129,-0.0129,-0.013,0,0,0.0437,0.0506,0.0541,0.0666,0.0751,0.0851,0.092,0.1039,0.1111,0.1167,0.1157,0.1093,0.0814,0.0558,0.0274,0.0084,0.0038,0.0035,0.0066,0.0152,0.0158,-0.0043,-0.0021,0,0,0,0,0]}],[{"header":{"parameterUnit":"m.s-1","parameterCategory":2,"la1":30.2991,"la2":30.254,"lo1":-89.0895,"lo2":-89.0444,"dy":0.0017,"dx":0.0017,"nx":28,"ny":28,"refTime":"2024-04-17T09:00:00:Z","depth":"4","parameterNumber":2,"parameterNumberName":"U-component_of_CURRENTS"},"data":[0,0,0,0,0,0,0,0,0,0,0,0,0,0,0,0,0,0,0,0,0,0,0,0,0,0,0,0,0,0,0,0,0,0,0,0,0,0,0,0,0,0,0,0,0,0,0,0,0,0,0,0,0,0,0,0,0,0,0.1077,0.1078,0,0.1102,0.1102,0.1102,0.1125,0.1126,0.1126,0.1127,0.1171,0.1172,0.1172,0,0,0,0,0,0,0,0,0,0,0,0,0,0.1062,0.1062,0.1077,0.1078,0.1079,0.1102,0.1102,0.1102,0.1125,0.1126,0.1127,0.1128,0.1171,0.1172,0.1172,0,0,0,0,0,0,0,0,0,0,0,0,0,0.1071,0.1061,0.1077,0.1097,0.11,0.1102,0.1102,0.1102,0.1125,0.1126,0.1127,0.1128,0.1171,0.1172,0.1172,0.1152,0,0,0.1174,0.1174,0,0,0,0,0,0,0,0,0.107,0.107,0.1093,0.1096,0.1099,0.1116,0.1113,0.1121,0.1124,0.1109,0.1127,0.1129,0.1157,0.1159,0.1153,0.1154,0.1156,0.1174,0.1175,0.1175,0.1175,0,0,0,0,0,0,0,0.1069,0.107,0.1081,0.1094,0.1098,0.111,0.1111,0.1114,0.1122,0.1111,0.1114,0.1125,0.1158,0.1152,0.1154,0.1157,0.1174,0.1175,0.1175,0.1175,0.1244,0.1245,0,0,0,0,0,0,0.1075,0.1069,0.1081,0.1083,0.1093,0.1109,0.1111,0.1105,0.1122,0.1127,0.1124,0.1126,0.1151,0.1154,0.1156,0.1219,0.1175,0.1176,0.1176,0.1242,0.1244,0.1246,0,0,0,0,0,0,0.1074,0.1075,0.108,0.1082,0.1084,0.1109,0.1101,0.1105,0.1129,0.1133,0.1138,0.1149,0.1152,0.1155,0.1187,0.1217,0.1176,0.1176,0.1241,0.1243,0.1245,0.1289,0,0,0,0,0,0,0.1074,0.1074,0.1084,0.1082,0.1084,0.1097,0.1101,0.1105,0.1135,0.1138,0.1155,0.1158,0.1153,0.1186,0.1188,0.1218,0.1177,0.1239,0.1242,0.1244,0.1286,0.1292,0.1298,0,0,0,0,0,0.1073,0.1078,0.1084,0.1087,0.1092,0.1098,0.11,0.1118,0.1135,0.1144,0.1164,0.1159,0.1205,0.1188,0.1189,0.122,0.1238,0.1241,0.1244,0.1283,0.1291,0.1298,0,0,0,0,0,0,0.108,0.1081,0.1088,0.1095,0.1105,0.1105,0.1122,0.1133,0.1154,0.1169,0.1171,0.1175,0.1216,0.1212,0.1193,0.1249,0.1223,0.1227,0.1252,0.126,0.1266,0.1273,0.1177,0,0,0,0,0,0.1085,0.1091,0.1093,0.1104,0.1109,0.112,0.1132,0.1144,0.1158,0.1169,0.1182,0.1202,0.1223,0.1239,0.1249,0.1275,0.1281,0.1299,0.1305,0.131,0.1318,0.1351,0.136,0.1256,0.1256,0.1256,0,0,0.1092,0.1098,0.1101,0.1108,0.1116,0.1123,0.1129,0.1153,0.1167,0.1171,0.1201,0.1223,0.1235,0.1267,0.1285,0.1273,0.1345,0.1314,0.1318,0.1324,0.1355,0.1365,0.1374,0.1258,0.1258,0.1258,0,0,0.1101,0.1111,0.1114,0.112,0.1143,0.115,0.1164,0.1176,0.1191,0.122,0.1234,0.1272,0.1298,0.1311,0.1322,0.1368,0.1375,0.1385,0.1424,0.1455,0.1464,0.1471,0.1496,0.1506,0.139,0.139,0.139,0,0.1115,0.1111,0.112,0.1123,0.1137,0.1164,0.1172,0.1185,0.1211,0.1234,0.1241,0.1313,0.1314,0.1366,0.1384,0.138,0.1406,0.1392,0.1463,0.147,0.1478,0.1501,0.1511,0.1392,0.1392,0.1392,0.1392,0,0.1111,0.1119,0.1124,0.1135,0.1152,0.1168,0.1186,0.1213,0.1248,0.127,0.1338,0.1354,0.1403,0.1413,0.1412,0.1476,0.1481,0.1464,0.1441,0.1491,0.1513,0.1522,0.1396,0.1395,0.1394,0.1394,0,0,0.1107,0.1119,0.1123,0.1128,0.1161,0.1169,0.1207,0.1245,0.1286,0.133,0.1385,0.1429,0.1469,0.1485,0.1502,0.1529,0.1591,0.153,0.1531,0.1551,0.1677,0.1559,0.1558,0.1601,0.1603,0.1605,0.1673,0,0.1104,0.1109,0.1122,0.114,0.1143,0.1182,0.1212,0.1259,0.1312,0.137,0.1422,0.1483,0.1488,0.1532,0.1564,0.1588,0.162,0.1575,0.163,0.1631,0.1517,0.1566,0.1611,0.168,0.1682,0.1684,0.1685,0,0.1089,0.1097,0.1112,0.1139,0.1146,0.1174,0.1246,0.1279,0.1368,0.1415,0.1505,0.1549,0.1622,0.1606,0.169,0.1673,0.1685,0.1693,0.1695,0.1576,0.1531,0.1621,0.1702,0.1701,0.1699,0.1698,0.1697,0,0.1069,0.1087,0.1104,0.1111,0.1151,0.1183,0.1224,0.1308,0.1352,0.1465,0.1522,0.1617,0.1676,0.1719,0.175,0.1736,0.1825,0.1794,0.1701,0.1693,0.1758,0.1749,0.1844,0.1844,0.1843,0.1843,0.1843,0,0.1047,0.1058,0.1101,0.1104,0.114,0.1181,0.1249,0.1303,0.1403,0.1464,0.1558,0.1621,0.1712,0.177,0.1783,0.1778,0.1856,0.1718,0.1705,0.1776,0.1768,0.1765,0.1755,0.1846,0.1845,0.1845,0.1844,0,0.1012,0.1041,0.1057,0.1107,0.1129,0.1162,0.1254,0.1297,0.1405,0.1491,0.1533,0.1653,0.1725,0.1789,0.1853,0.1805,0.1811,0.1786,0.1873,0.1862,0.1651,0.1643,0.1685,0.1681,0.1678,0.1676,0.1673,0,0.0986,0.0992,0.1052,0.1072,0.1099,0.1159,0.1196,0.1295,0.1341,0.1493,0.1516,0.1635,0.1699,0.1712,0.1776,0.1797,0.1769,0.1761,0.1689,0.1653,0.1637,0.1633,0.1629,0.1669,0.1668,0.1667,0.1666,0,0.0933,0.0973,0.0995,0.1034,0.1073,0.1105,0.1167,0.1189,0.1301,0.1412,0.1477,0.1523,0.1595,0.1645,0.1676,0.1683,0.1758,0.1729,0.1734,0.1666,0.1634,0.162,0.162,0.1656,0.1657,0.1658,0.1659,0,0.0905,0.0909,0.0951,0.0979,0.1023,0.1026,0.1068,0.1114,0.1171,0.1326,0.1348,0.1471,0.1584,0.1587,0.1616,0.1615,0.1579,0.1515,0.1531,0.1543,0.1462,0.1398,0.1345,0,0,0,0,0,0.0863,0.086,0.0882,0.0897,0.0941,0.0961,0.1031,0.1076,0.118,0.119,0.1268,0.133,0.1385,0.1451,0.142,0.1533,0.1573,0.1487,0.1504,0.1598,0.161,0.1525,0,0,0,0,0,0,0.0832,0.0855,0.0856,0.0829,0.0824,0.0846,0.0883,0.0953,0.0967,0.1093,0.1136,0.124,0.1317,0.1393,0.1394,0.141,0.1389,0.1566,0.1562,0.1591,0.1602,0.1612,0.1529,0,0,0,0,0]},{"header":{"parameterUnit":"m.s-1","parameterCategory":2,"la1":30.2991,"la2":30.254,"lo1":-89.0895,"lo2":-89.0444,"dy":0.0017,"dx":0.0017,"nx":28,"ny":28,"refTime":"2024-04-17T09:00:00:Z","depth":"4","parameterNumber":3,"parameterNumberName":"V-component_of_CURRENTS"},"data":[0,0,0,0,0,0,0,0,0,0,0,0,0,0,0,0,0,0,0,0,0,0,0,0,0,0,0,0,0,0,0,0,0,0,0,0,0,0,0,0,0,0,0,0,0,0,0,0,0,0,0,0,0,0,0,0,0,0,0.0041,0.004,0,0.0028,0.0027,0.0027,0.0009,0.0009,0.0008,0.0008,-0.0023,-0.0023,-0.0024,0,0,0,0,0,0,0,0,0,0,0,0,0,0.0045,0.0045,0.0041,0.004,0.004,0.0028,0.0027,0.0027,0.0009,0.0009,0.0008,0.0008,-0.0023,-0.0023,-0.0024,0,0,0,0,0,0,0,0,0,0,0,0,0,0.0039,0.0045,0.0041,0.0029,0.0028,0.0028,0.0027,0.0027,0.0009,0.0009,0.0008,0.0008,-0.0022,-0.0023,-0.0024,-0.0019,0,0,-0.0026,-0.0027,0,0,0,0,0,0,0,0,0.0039,0.0039,0.0031,0.003,0.0029,0.0019,0.0018,0.0011,0.0009,0.0016,0.0008,0.0007,-0.001,-0.0012,-0.0013,-0.002,-0.0022,-0.0026,-0.0027,-0.0027,-0.0027,0,0,0,0,0,0,0,0.0039,0.0039,0.0035,0.0031,0.003,0.0024,0.0022,0.0016,0.0006,0.0016,0.0014,0.0013,-0.0011,-0.0012,-0.0014,-0.0022,-0.0026,-0.0027,-0.0027,-0.0028,-0.0025,-0.0025,0,0,0,0,0,0,0.0042,0.0039,0.0036,0.0035,0.0033,0.0024,0.0022,0.0023,0.0006,0.0003,0.0013,0.0012,-0.001,-0.0013,-0.0015,0.0001,-0.0027,-0.0028,-0.0028,-0.0026,-0.0025,-0.0024,0,0,0,0,0,0,0.0042,0.0042,0.0036,0.0037,0.0036,0.0024,0.0025,0.0023,0.0021,0.0005,0.0001,0.0014,-0.0011,-0.0014,-0.0013,-0.0001,-0.0028,-0.0029,-0.0026,-0.0025,-0.0025,0.0026,0,0,0,0,0,0,0.0042,0.0042,0.0045,0.0037,0.0036,0.0043,0.0026,0.0023,0.0021,0.0019,0.0004,0.0001,-0.0012,-0.0012,-0.0014,-0.0002,-0.0029,-0.0027,-0.0026,-0.0025,0.0023,0.0028,0.0032,0,0,0,0,0,0.0042,0.0052,0.0045,0.0045,0.0039,0.0043,0.0042,0.0032,0.0022,0.0028,0.0018,0.0001,-0.0007,-0.0011,-0.0014,-0.0003,-0.0027,-0.0026,-0.0025,0.0021,0.0027,0.0032,0,0,0,0,0,0,0.0055,0.005,0.0043,0.005,0.0048,0.004,0.0045,0.0035,0.0032,0.0028,0.001,0.0007,0.001,-0.0002,-0.0007,0.0,-0.0021,-0.002,0.0015,0.002,0.0025,0.0031,-0.003,0,0,0,0,0,0.0059,0.0064,0.0058,0.0064,0.0065,0.0055,0.0054,0.0046,0.0041,0.0039,0.003,0.0019,0.0014,0.0013,0.0004,0.0012,-0.0016,0.0016,0.002,0.0024,0.0027,-0.0003,-0.0001,-0.0021,-0.0021,-0.0021,0,0,0.0063,0.0063,0.0065,0.0067,0.0064,0.0075,0.0054,0.0056,0.0066,0.0036,0.0049,0.0033,0.0018,0.0026,0.0026,0.0017,0.0014,0.0026,0.0029,0.003,-0.0002,-0.0,0.0001,-0.002,-0.002,-0.002,0,0,0.008,0.0078,0.0089,0.0092,0.0092,0.0089,0.0092,0.0086,0.0086,0.0094,0.0074,0.0069,0.0064,0.0057,0.0053,0.0077,0.0037,0.0071,0.0102,0.0073,0.0074,0.0075,0.0039,0.0036,0.0076,0.0076,0.0076,0,0.0085,0.0099,0.0093,0.0107,0.0115,0.0099,0.0116,0.0116,0.0112,0.0116,0.0105,0.0095,0.0081,0.0088,0.0096,0.0087,0.0058,0.0085,0.0078,0.0078,0.0078,0.0041,0.0037,0.0079,0.0079,0.0078,0.0078,0,0.0111,0.0123,0.0133,0.0147,0.0156,0.0167,0.0168,0.0174,0.017,0.0166,0.0171,0.0152,0.0145,0.0141,0.0127,0.0124,0.0099,0.0085,0.0065,0.0083,0.0043,0.0038,0.0083,0.0082,0.0081,0.008,0,0,0.0119,0.0146,0.0149,0.0166,0.0178,0.019,0.0209,0.0223,0.0235,0.0227,0.0239,0.023,0.021,0.0203,0.0181,0.0159,0.0132,0.0125,0.0122,0.009,0.0057,0.0048,0.0041,0.0113,0.0113,0.0113,0.0028,0,0.0142,0.0179,0.0186,0.0224,0.0244,0.0245,0.0269,0.0277,0.0277,0.0284,0.0263,0.0264,0.0237,0.0232,0.0207,0.015,0.0122,0.0156,0.0044,0.0041,0.0031,0.0037,0.0111,0.0024,0.0023,0.0022,0.0022,0,0.0164,0.0189,0.023,0.0269,0.0279,0.0301,0.0332,0.0349,0.0352,0.035,0.0341,0.0316,0.0291,0.0261,0.0176,0.0196,0.0132,0.0085,0.0081,0.0052,0.0023,0.0002,0.0012,0.0013,0.0013,0.0014,0.0015,0,0.0179,0.022,0.0257,0.027,0.031,0.0332,0.0354,0.037,0.0388,0.0388,0.039,0.0354,0.0331,0.0256,0.0159,0.0163,0.0053,0.0044,-0.0025,-0.0027,-0.0017,-0.0017,-0.0021,-0.0021,-0.0021,-0.002,-0.002,0,0.0201,0.023,0.0268,0.029,0.0337,0.0358,0.0403,0.0415,0.0433,0.0453,0.0422,0.0417,0.0326,0.0253,0.0166,0.0053,0.0053,-0.002,-0.0047,0.0006,0.001,-0.0021,-0.002,-0.0024,-0.0023,-0.0022,-0.0022,0,0.0207,0.0233,0.0277,0.0327,0.0346,0.0379,0.0435,0.046,0.0476,0.0496,0.0496,0.0453,0.0366,0.0264,0.0134,0.0061,-0.0044,-0.0087,-0.0029,-0.0051,-0.0106,-0.0102,-0.0165,-0.0166,-0.0166,-0.0167,-0.0168,0,0.0213,0.0236,0.0298,0.0326,0.0351,0.0404,0.0439,0.0476,0.0502,0.0515,0.0519,0.0454,0.041,0.0226,0.0115,-0.0051,-0.0075,-0.0139,-0.0112,-0.0101,-0.012,-0.0114,-0.0108,-0.0169,-0.0169,-0.0169,-0.017,0,0.0216,0.0238,0.0273,0.0333,0.0376,0.0431,0.0483,0.0504,0.0543,0.0556,0.0539,0.0459,0.0359,0.0229,0.0096,-0.0023,-0.0098,-0.0148,-0.0146,-0.0122,-0.0107,-0.0124,-0.0117,-0.0172,-0.0172,-0.0172,-0.0172,0,0.0211,0.0231,0.0276,0.0333,0.0387,0.044,0.0474,0.0509,0.0538,0.0558,0.0546,0.0458,0.041,0.0241,0.0118,0.0004,-0.002,-0.0062,-0.0066,-0.0064,-0.0007,0.0029,-0.0018,0,0,0,0,0,0.0203,0.0226,0.0271,0.0334,0.0392,0.0429,0.0492,0.0522,0.0558,0.0551,0.0556,0.0471,0.0313,0.0246,0.0131,0.009,-0.0055,-0.0051,-0.0109,-0.0188,-0.0185,-0.0134,0,0,0,0,0,0,0.0192,0.0231,0.0261,0.0325,0.037,0.0434,0.0477,0.0505,0.0509,0.053,0.0452,0.0431,0.0278,0.038,0.0126,0.0092,0.0036,-0.0117,-0.012,-0.019,-0.0187,-0.0184,-0.0131,0,0,0,0,0]}]]